Location: Krasnoyarskiy Pitomnik
(51.1333°N, 71.6167°E)
Time: 00:32:52
(UTC+00:00)

NOSS 2-2 (C) - Pass Details

Date: 30 May 2022
Orbit: 439 x 1763 km, 63.3° (Epoch: 02 June)

Event Time Altitude Azimuth Distance (km) Brightness Sun altitude
Rises 19:27:38 0° 310° (NW) 3,018 7.6 -16.9°
Reaches altitude 10° 19:29:48 10° 301° (WNW) 2,254 6.8 -16.9°
Maximum altitude 19:34:31 36° 236° (SW) 1,411 5.0 -16.8°
Enters shadow 19:37:15 25° 192° (SSW) 1,906 5.4 -16.8°
